Regional Weather Roundup
Issued by NWS

Home | Current Version | Previous Version | Graphics & Text | Print | Product List | Glossary On
Versions: 1 2 3 4 5 6 7 8 9 10 11 12 13 14 15 16 17 18 19 20 21 22 23 24 25 26 27 28 29 30 31 32 33 34 35 36 37 38 39 40 41 42 43 44 45 46 47 48 49 50
735
ASUS43 KMPX 230901
RWRMN
WEATHER ROUNDUP FOR MINNESOTA
NATIONAL WEATHER SERVICE TWIN CITIES/CHANHASSEN MN
300 AM CST TUE JAN 23 2018


NOTE: "FAIR" INDICATES FEW OR NO CLOUDS BELOW 12,000 FEET WITH NO
SIGNIFICANT WEATHER AND/OR OBSTRUCTIONS TO VISIBILITY. N/A MEANS
CURRENT SKY AND/OR WEATHER CONDITIONS ARE NOT AVAILABLE.

MNZ060>063-068>070-231000-
   Twin Cities Metro

CITY           SKY/WX    TMP DP  RH WIND       PRES   REMARKS
TWIN CITIES    FAIR      22  16  78 N15       29.88R HAZE    WCI   9
ST PAUL        FAIR      22  15  75 N15       29.88R WCI   9
CRYSTAL        FAIR      21  12  68 N9        29.88R WCI  11
BLAINE         FAIR      21  16  79 N10       29.88R WCI  10
LAKEVILLE      MOCLDY    21  18  86 NW12      29.86R WCI   9
EDEN PRAIRIE   FAIR      23  15  71 N9        29.87R WCI  13
SOUTH ST PAUL  FAIR      24  16  72 N9        29.87R WCI  14
LAKE ELMO      CLOUDY    23  18  80 N12       29.85S WCI  12
$$
MNZ001>005-007-008-013>017-022>024-027-028-231000-
   Northwest Minnesota

CITY           SKY/WX    TMP DP  RH WIND       PRES   REMARKS
BEMIDJI        CLOUDY    19  15  85 N7        30.00R WCI   9
HALLOCK        CLOUDY    21  16  79 CALM      30.07S
ROSEAU         CLOUDY    19  14  79 NE3       30.06R
WARROAD        CLOUDY    18  12  79 N3        30.06S
CROOKSTON      CLOUDY    19  16  86 N6        30.08S WCI  11
FOSSTON        CLOUDY    18  14  86 N7        30.04R WCI   8
DETROIT LAKES  CLOUDY    21  18  86 N5        30.01R WCI  15
MOORHEAD       CLOUDY    19  18  93 N8        30.06R WCI   9
PARK RAPIDS    FAIR      19  14  81 N9        29.97R WCI   8
MAHNOMEN       CLOUDY    20  16  83 N8        30.02R WCI  10
$$
MNZ006-009>011-018-025>026-231000-
   North Central Minnesota

CITY           SKY/WX    TMP DP  RH WIND       PRES   REMARKS
BAUDETTE       CLOUDY    14  10  84 N7        30.04R WCI   4
FLAG ISLAND    CLOUDY    14   9  79 NE6       30.06R WCI   5
INTL FALLS     FAIR       8   3  80 N8        30.02R WCI  -4
WASKISH        CLOUDY    18  12  79 N7        30.02R WCI   8
BIG FORK       CLOUDY    12   9  85 N6        29.99R WCI   3
LONGVILLE      FAIR      16  12  86 N3        29.97R
GRAND RAPIDS   MOCLDY    10   8  92 N7        29.97R WCI  -1
CRANE LAKE     FAIR       3   1  92 N3        30.02S
ORR            FAIR       3   0  85 CALM      29.95S
COOK           CLOUDY     5   1  85 N5        29.97R WCI  -4
WALKER         FAIR      17  13  86 N6        29.98R WCI   8
$$
MNZ012-019>021-037-231000-
   Northeast Minnesota

CITY           SKY/WX    TMP DP  RH WIND       PRES   REMARKS
DULUTH         MOCLDY    11   6  81 N9        29.88R WCI  -2
HIBBING        FAIR       7   3  84 N14       29.93S WCI -10
EVELETH        FAIR       7   0  75 NE6       29.94S WCI  -4
DULUTH HARBOR  MOCLDY    19  14  79 N14       29.94R WCI   6
TWO HARBORS    CLOUDY    16   9  73 NW6       29.88R WCI   7
SILVER BAY     MOCLDY    10   7  85 N3        29.88R
GRAND MARAIS     N/A     13   3  64 VRB6      29.91R WCI   4
G MARAIS ARPRT CLOUDY     3  -2  78 N13       29.81S WCI -14
$$
MNZ029>031-032-039>041-046>048-054>057-064-231000-
   West Central Minnesota

CITY           SKY/WX    TMP DP  RH WIND       PRES   REMARKS
FERGUS FALLS   CLOUDY    21  16  79 N9        30.02R WCI  11
WHEATON        CLOUDY    23  18  80 NW13      30.06R WCI  11
MORRIS         CLOUDY    25  18  74 N15       30.00R WCI  12
ALEXANDRIA     CLOUDY    22  17  81 N12       29.97R WCI  10
ELBOW LAKE     CLOUDY    22  17  81 N12       30.01R WCI  11
WADENA         CLOUDY    19  16  86 N10G16    29.98R WCI   8
GLENWOOD       FAIR      21  18  86 N15       29.98R WCI   8
APPLETON       CLOUDY    25  18  74 N16       30.01R WCI  12
BENSON         CLOUDY    25  18  74 N12       30.01R WCI  14
ORTONVILLE     CLOUDY    23  18  80 NW13      30.02R WCI  11
MADISON        CLOUDY    27  21  80 N14G22    30.02R WCI  15
WILLMAR        FAIR      21  18  86 NW13      29.99R WCI   9
$$
MNZ033>034-036-042>043-049>051-058-059-231000-
   Central Minnesota

CITY           SKY/WX    TMP DP  RH WIND       PRES   REMARKS
ST CLOUD       FAIR      20  15  81 N12       29.92R WCI   8
SAUK CENTRE      N/A     21  16  82 NW13      29.96R WCI   8
PAYNESVILLE    FAIR      20  18  91 NW7       29.96R WCI  11
AITKIN         FAIR      14  10  85 NW8       29.92S WCI   3
PINE RIVER     FAIR      16  12  86 NW5       30.00R WCI   9
BRAINERD       FAIR      18  13  80 N10       29.95R WCI   6
STAPLES        FAIR      16  12  86 N8        29.97R WCI   5
LONG PRAIRIE   FAIR      19  16  86 NW10G18   29.95R WCI   8
LITTLE FALLS   FAIR      21  12  68 NW7       29.96R WCI  13
LITCHFIELD     FAIR      21  19  93 NW13G20   29.94R WCI   9
BUFFALO        FAIR      21  15  77 NW9       29.92R WCI  11
MAPLE LAKE     FAIR      23  18  81 MISG      29.92R
HUTCHINSON     FAIR      23  18  81 NW15      29.94R WCI  10
$$
MNZ037-044-045-052-053-231000-
   East Central Minnesota

CITY           SKY/WX    TMP DP  RH WIND       PRES   REMARKS
PRINCETON      FAIR      19  16  86 NW8       29.91R WCI   9
MORA           FAIR      19  12  73 N6        29.92R WCI  11
CAMBRIDGE      FAIR      21  12  68 N6        29.90R WCI  14
RUSH CITY      FAIR      18  12  79 N10       29.89S WCI   6
MOOSE LAKE     FAIR      16  10  79 N7        29.90R WCI   6
HINCKLEY       FAIR      18  14  86 N9        29.90R WCI   6
CLOQUET        CLOUDY    12   9  85 N13       29.90R WCI  -3
MCGREGOR       FAIR      14  12  92 N8        29.93R WCI   3
$$
MNZ071>073-080-081-089-090-097-098-231000-
   Southwest Minnesota

CITY           SKY/WX    TMP DP  RH WIND       PRES   REMARKS
MONTEVIDEO     CLOUDY    25  19  80 N13       30.00R WCI  13
GRANITE FALLS  CLOUDY    26  21  81 NW13G21   30.01R WCI  15
CANBY          CLOUDY    24  22  91 N15G23    30.03R WCI  11
MARSHALL       CLOUDY    23  20  88 N23       29.98R WCI   7
REDWOOD FALLS  CLOUDY    23  18  81 N12       29.97R WCI  12
OLIVIA         CLOUDY    23  19  86 NW13      29.96R WCI  11
PIPESTONE      CLOUDY    19  19 100 N17G24    29.96R WCI   4
WINDOM         CLOUDY    23  10  58 NW18G28   29.93R WCI   9
WORTHINGTON    LGT SNOW  22  21  96 NW20      29.94R FOG     WCI   7
JACKSON        CLOUDY    23  21  93 N18G30    29.91R WCI   9
TRACY          CLOUDY    24  23  93 NW17G23   29.97R WCI  11
SLAYTON        CLOUDY    22  21  95 N17G25    29.95R WCI   8
$$
MNZ065>067-074>077-082>085-091>093-231000-
   South Central Minnesota

CITY           SKY/WX    TMP DP  RH WIND       PRES   REMARKS
MANKATO        CLOUDY    24  19  81 NW21      29.89R WCI   9
NEW ULM        MOCLDY    25  18  74 NW17G23   29.93R WCI  11
ST JAMES       CLOUDY    25  21  86 NW21      29.93R WCI  10
FAIRMONT       CLOUDY    24  22  91 NW24G30   29.90R WCI   8
FARIBAULT      CLOUDY    25  19  80 NW15G22   29.85R WCI  12
OWATONNA         N/A    N/A N/A N/A NW16      29.83R
WASECA         CLOUDY    25  21  86 NW20      29.86R WCI  11
ALBERT LEA     CLOUDY    25  21  86 NW15G21   29.82R WCI  12
$$
MNZ078>079-086>088-094>096-231000-
   Southeast Minnesota

CITY           SKY/WX    TMP DP  RH WIND       PRES   REMARKS
ROCHESTER      LGT SNOW  23  22  96 N22G32    29.77R FOG     WCI   8
RED WING       CLOUDY    25  18  74 NW8       29.83R WCI  16
STANTON        CLOUDY    26  20  80 N16       29.83R WCI  13
DODGE CENTER   LGT SNOW  23  19  86 N15       29.79R WCI  10
WINONA         CLOUDY    30  25  80 NW14G21   29.75R WCI  20
PRESTON        CLOUDY    24  21  88 N18G24    29.73R WCI  10
$$
ABBREVIATIONS USED IN REMARKS
   TC - TEMPERATURES IN CELSIUS
  WCI - WIND CHILL INDEX
   HX - HEAT INDEX
  VSB - VISIBILITY
$$




USA.gov is the U.S. government's official web portal to all federal, state and local government web resources and services.